Header for Extended Forecast Station List Page

Search by: ID | Name | Date | Parm | Value | Avg | % Avg
Sort by: ID | Name | Date | Parm | Value | Avg | % Avg

Enter search or view all records.

Click on id for station plot
#IDNameDateParmValueAvg% Avg
0LYDM8KOOTENAI-LIBBY DAM04-08-2024INFLOW (KAF)4589511490
1LEOI1KOOTENAI-AT LEONIA04-08-2024DISCHARGE (KAF)3945408597
2BFEI1KOOTENAI-AT BONNERS FERRY04-08-2024STAGE (FT)MMM
3FCFM8NF FLATHEAD-NEAR COLUMBIA FALLS04-08-2024DISCHARGE (KAF)1149145279
4WGCM8MF FLATHEAD-NEAR WEST GLACIER04-08-2024DISCHARGE (KAF)1131139481
5HHWM8SF FLATHEAD-HUNGRY HORSE DAM04-08-2024INFLOW (KAF)1440173283
6CFMM8FLATHEAD-AT COLUMBIA FALLS04-08-2024DISCHARGE (KAF)3458399687
7DLGM8CLARK FORK-AT DEER LODGE04-08-2024DISCHARGE (KAF)657488
8DRMM8CLARK FORK-NR DRUMMOND04-08-2024DISCHARGE (KAF)19321789
9RCCM8ROCK CREEK-NEAR CLINTON04-08-2024DISCHARGE (KAF)20323786
10BONM8BLACKFOOT-NEAR BONNER04-08-2024DISCHARGE (KAF)42469661
11ABOM8CLARK FORK-ABOVE MISSOULA04-08-2024DISCHARGE (KAF)855122370
12BITM8BITTERROOT-NEAR MISSOULA04-08-2024DISCHARGE (KAF)761105972
13BELM8CLARK FORK-BELOW MISSOULA04-08-2024DISCHARGE (KAF)1616232969
14STRM8ST. REGIS-NEAR ST. REGIS04-08-2024DISCHARGE (KAF)20223187
15SRGM8CLARK FORK-AT ST REGIS04-08-2024DISCHARGE (KAF)2183306571
16KERM8FLATHEAD-SELI’Š KSANKA QLISPE’ DAM04-08-2024INFLOW (KAF)4092483385
17NOXM8CLARK FORK-NOXON RAPIDS DAM04-08-2024INFLOW (KAF)5821781375
18CABI1CLARK FORK-CABINET GORGE DAM04-08-2024INFLOW (KAF)6418864174
19PRTI1PRIEST-NEAR PRIEST RIVER04-08-2024DISCHARGE (KAF)61770488
20ALFW1PEND OREILLE-ALBENI FALLS DAM04-08-2024INFLOW (KAF)7546968378
21HOPI1PEND OREILLE-LAKE PEND OREILLE NR HOPE04-08-2024LAKE ELEVATION (FT)MMM
22COEI1COEUR D ALENE-COEUR D ALENE LAKE04-08-2024INFLOW (KAF)1535202676
23SPOW1SPOKANE-AT SPOKANE04-08-2024DISCHARGE (KAF)1490212870
24LLKW1SPOKANE-AT LONGLAKE04-08-2024INFLOW (KAF)1681237471
25SATI1ST MARIES-NEAR SANTA04-08-2024DISCHARGE (KAF)619366
26SJMI1ST JOE-AT ST MARIES04-08-2024STAGE (FT)MMM
27CIBW1COLUMBIA-AT INTL BOUNDARY04-08-2024DISCHARGE (KAF)244082934483
28LAUW1KETTLE-AT LAURIER04-08-2024DISCHARGE (KAF)1432167785
29GCDW1COLUMBIA-GRAND COULEE DAM04-08-2024INFLOW (KAF)276033140788
30CHJW1COLUMBIA-CHIEF JOSEPH DAM04-08-2024INFLOW (KAF)260293043686
31TONW1OKANOGAN-NEAR TONASKET04-08-2024DISCHARGE (KAF)812141058
32PATW1METHOW-NEAR PATEROS04-08-2024DISCHARGE (KAF)49079462
33WELW1COLUMBIA-WELLS DAM04-08-2024INFLOW (KAF)273353279483
34CHDW1CHELAN-LAKE CHELAN DAM04-08-2024INFLOW (KAF)51293755
35RRHW1COLUMBIA-ROCKY REACH DAM04-08-2024INFLOW (KAF)276773379782
36ARDW1ENTIAT-NEAR ARDENVOIR04-08-2024DISCHARGE (KAF)14518181
37PESW1WENATCHEE-AT PESHASTIN04-08-2024DISCHARGE (KAF)971125178
38WANW1COLUMBIA-WANAPUM DAM04-08-2024INFLOW (KAF)286343511182
39PRWW1COLUMBIA-PRIEST RAPIDS DAM04-08-2024INFLOW (KAF)286353518481
40KEDW1YAKIMA-KEECHELUS LAKE04-08-2024INFLOW (KAF)8110081
41KADW1KACHESS-KACHESS DAM04-08-2024INFLOW (KAF)708880
42EASW1YAKIMA-AT EASTON04-08-2024DISCHARGE (KAF)869392
43CLUW1CLE ELUM-CLE ELUM LAKE04-08-2024INFLOW (KAF)29733888
44TNAW1TEANAWAY-BELOW FORKS04-08-2024DISCHARGE (KAF)9810692
45UMTW1YAKIMA-AT UMTANUM04-08-2024DISCHARGE (KAF)71679191
46BUDW1BUMPING-BUMPING LAKE DAM04-08-2024INFLOW (KAF)929893
47CLFW1NACHES-NEAR CLIFFDEL04-08-2024DISCHARGE (KAF)29333887
48RILW1TIETON-RIMROCK LAKE NEAR RIMROCK04-08-2024INFLOW (KAF)15917491
49NACW1NACHES-NEAR NACHES04-08-2024DISCHARGE (KAF)44248491
50PARW1YAKIMA-NEAR PARKER04-08-2024DISCHARGE (KAF)31748865
51KIOW1YAKIMA-AT KIONA04-08-2024DISCHARGE (KAF)62078179
52IPDI1HENRYS FORK-ISLAND PARK DAM04-08-2024INFLOW (KAF)17218195
53CHEI1FALL RIVER-NEAR CHESTER04-08-2024DISCHARGE (KAF)318302106
54ANTI1HENRYS FORK-AT ST. ANTHONY04-08-2024DISCHARGE (KAF)594569104
55TEAI1TETON-NEAR ST. ANTHONY04-08-2024DISCHARGE (KAF)385335115
56REXI1HENRYS FORK-AT REXBURG04-08-2024DISCHARGE (KAF)682648105
57JLKW4SNAKE-JACKSON LAKE AT DAM04-08-2024INFLOW (KAF)726682107
58JKSW4SNAKE-NEAR JACKSON04-08-2024DISCHARGE (KAF)16281491109
59ALPW4SNAKE-NEAR ALPINE04-08-2024DISCHARGE (KAF)19831880105
60PLDI1SF SNAKE-PALISADES DAM04-08-2024INFLOW (KAF)29302631111
61HEII1SNAKE-NEAR HEISE04-08-2024DISCHARGE (KAF)33742844119
62RIDI1WILLOW CREEK-RIRIE DAM04-08-2024INFLOW (KAF)7434217
63SIFI1SNAKE-AB EAGLE ROCK NR IDAHO FALLS04-08-2024DISCHARGE (KAF)27402000137
64SHYI1SNAKE-NEAR SHELLEY04-08-2024DISCHARGE (KAF)25551819140
65SNAI1SNAKE-AT BLACKFOOT04-08-2024DISCHARGE (KAF)20381169174
66BFTI1SNAKE-NEAR BLACKFOOT04-08-2024DISCHARGE (KAF)19861144174
67PIHI1PORTNEUF-AT POCATELLO04-08-2024DISCHARGE (KAF)15350303
68AFRI1SNAKE-AMERICAN FALLS RESERVOIR04-08-2024INFLOW (KAF)26521732153
69MILI1SNAKE-AT MILNER04-08-2024DISCHARGE (KAF)46353877
70HOTI1BRUNEAU-NEAR HOT SPRINGS04-08-2024DISCHARGE (KAF)211143147
71SWAI1SNAKE-BELOW SWAN FALLS04-08-2024DISCHARGE (KAF)23991764136
72HWRI1BIG LOST-AT HOWELL RANCH NEAR CHILLY04-08-2024DISCHARGE (KAF)180129139
73MACI1BIG LOST-MACKAY RESERVOIR NEAR MACKAY04-08-2024INFLOW (KAF)15990177
74HALI1BIG WOOD-AT HAILEY04-08-2024DISCHARGE (KAF)230183126
75MAGI1BIG WOOD-MAGIC DAM04-08-2024INFLOW (KAF)214151142
76LWRI1LITTLE WOOD-LITTLE WOOD DAM04-08-2024INFLOW (KAF)6951137
77OWYO3OWYHEE-OWYHEE DAM04-08-2024INFLOW (KAF)424181234
78ARAI1SF BOISE-ANDERSON RANCH DAM04-08-2024INFLOW (KAF)430375115
79LUCI1BOISE-LUCKY PEAK DAM04-08-2024INFLOW (KAF)12831114115
80BIGI1BOISE-AT GLENWOOD BRIDGE04-08-2024DISCHARGE (KAF)608289210
81PARI1BOISE-NEAR PARMA04-08-2024DISCHARGE (KAF)580257226
82WRMO3MALHEUR-WARM SPRINGS DAM04-08-2024INFLOW (KAF)5844132
83BERO3MALHEUR-AGENCY VALLEY DAM04-08-2024INFLOW (KAF)404198
84BULO3BULLY CREEK-BULLY CREEK DAM04-08-2024INFLOW (KAF)51481
85CSDI1NF PAYETTE-CASCADE DAM04-08-2024INFLOW (KAF)35041784
86DEDI1DEADWOOD-NEAR LOWMAN04-08-2024INFLOW (KAF)115110104
87EMMI1PAYETTE-NEAR EMMETT04-08-2024DISCHARGE (KAF)997108692
88WSRI1WEISER-NEAR WEISER04-08-2024DISCHARGE (KAF)296291102
89WEII1SNAKE-AT WEISER04-08-2024DISCHARGE (KAF)48513623134
90BRNI1SNAKE-BROWNLEE DAM04-08-2024INFLOW (KAF)53164037132
91WHBI1SALMON-AT WHITEBIRD04-08-2024DISCHARGE (KAF)4623505891
92TRYO3GRANDE RONDE-TROY04-08-2024DISCHARGE (KAF)999110890
93ANAW1SNAKE-NEAR ANATONE04-08-2024DISCHARGE (KAF)109291139396
94ORFI1CLEARWATER-AT OROFINO04-08-2024DISCHARGE (KAF)3529391590
95DWRI1NF CLEARWATER-DWORSHAK DAM04-08-2024INFLOW (KAF)1724216380
96SPDI1CLEARWATER-AT SPALDING04-08-2024DISCHARGE (KAF)5082608184
97LGDW1SNAKE-LOWER GRANITE DAM04-08-2024INFLOW (KAF)160111797089
98LGSW1SNAKE-LITTLE GOOSE DAM04-08-2024INFLOW (KAF)160111797289
99LMNW1SNAKE-LOWER MONUMENTAL DAM04-08-2024INFLOW (KAF)160561799189
100IHDW1SNAKE-ICE HARBOR DAM04-08-2024INFLOW (KAF)160561799889
101TCHW1WALLA WALLA-NEAR TOUCHET04-08-2024DISCHARGE (KAF)9610393
102MCDW1COLUMBIA-MCNARY DAM04-08-2024INFLOW (KAF)454455477383
103GIBO3UMATILLA-NEAR GIBBON04-08-2024DISCHARGE (KAF)585999
104PDTO3UMATILLA-AT PENDLETON04-08-2024DISCHARGE (KAF)10210696
105MYKO3MCKAY CREEK-NEAR PILOT ROCK04-08-2024DISCHARGE (KAF)81746
106UMAO3UMATILLA-NEAR UMATILLA04-08-2024DISCHARGE (KAF)649071
107MONO3NF JOHN DAY-AT MONUMENT04-08-2024DISCHARGE (KAF)42443498
108SERO3JOHN DAY-AT SERVICE CK04-08-2024DISCHARGE (KAF)669611109
109JDAO3COLUMBIA-JOHN DAY DAM04-08-2024INFLOW (KAF)472125558685
110MODO3DESCHUTES-AT MOODY NR BIGGS04-08-2024DISCHARGE (KAF)12741262101
111TDAO3COLUMBIA-THE DALLES DAM04-08-2024INFLOW (KAF)474715578285
112PITW1KLICKITAT-NEAR PITT04-08-2024DISCHARGE (KAF)415415100
113HODO3HOOD-NEAR TUCKER BRIDGE04-08-2024DISCHARGE (KAF)19419699
114UNDW1WHITE SALMON-NEAR UNDERWOOD04-08-2024DISCHARGE (KAF)24428785
115BONO3COLUMBIA-BONNEVILLE DAM04-08-2024INFLOW (KAF)483415766684